EW4564 Tarm DK current weather conditions

sailwx.info

Wind from 243 at 2 knots gusting 4

Air temperature 13.3° C
Dewpoint 10.0° C

Last reported at 2020-Jul-10 23:01 UTC.
Time now 2020-Jul-10 23:23 UTC

Location: N 55°54' E 008°31'.
View on Google Maps.

See reports from other nearby stations

  
Tides and Currents Weather Stations Pressure Air Temp Water Temp Dewpoint Dewpoint Depression Visibility Wind Speed Wind Dir Waves Ship Positions
date/time (UTC)wind fromknots sea level pressurealtimeterstation pressurevisibilityair tempwater tempwave heightnotes
2020-Jul-10 23:01 243 2 gusting 4 13.3
2020-Jul-10 22:56 288 1 gusting 7 13.3
2020-Jul-10 22:51 311 1 gusting 7 13.3
2020-Jul-10 22:46 230 2 gusting 7 13.3
2020-Jul-10 22:41 324 1 gusting 6 13.3
2020-Jul-10 22:36 290 1 gusting 6 13.3
2020-Jul-10 22:31 297 2 gusting 6 13.3
2020-Jul-10 22:26 308 2 gusting 9 13.3
2020-Jul-10 22:21 270 3 gusting 9 12.8
2020-Jul-10 22:16 287 2 gusting 6 12.8
2020-Jul-10 22:11 322 1 gusting 6 12.8
2020-Jul-10 22:06 312 2 gusting 5 12.8
2020-Jul-10 22:01 304 2 gusting 5 12.8
2020-Jul-10 21:56 283 1 gusting 4 12.8
2020-Jul-10 21:51 270 1 gusting 6 12.8
2020-Jul-10 21:46 270 2 gusting 6 12.8
2020-Jul-10 21:41 200 0 gusting 5 12.8
2020-Jul-10 21:36 295 2 gusting 10 12.8
2020-Jul-10 21:31 294 1 gusting 10 12.8
2020-Jul-10 21:26 002 2 gusting 8 12.8
2020-Jul-10 21:21 297 2 gusting 6 12.8
2020-Jul-10 21:16 291 1 gusting 6 12.8
2020-Jul-10 21:11 283 1 gusting 6 12.2
2020-Jul-10 21:06 277 2 gusting 6 12.8
2020-Jul-10 21:01 286 1 gusting 5 12.8
2020-Jul-10 20:56 278 1 gusting 5 12.8
2020-Jul-10 20:51 315 1 gusting 5 12.8
2020-Jul-10 20:46 274 1 gusting 7 12.8
2020-Jul-10 20:41 277 2 gusting 7 13.3
2020-Jul-10 20:36 312 2 gusting 12 13.3
2020-Jul-10 20:31 270 2 gusting 12 13.3
2020-Jul-10 20:26 294 2 gusting 6 13.3
2020-Jul-10 20:21 234 2 gusting 6 13.3
2020-Jul-10 20:16 319 2 gusting 8 13.3
2020-Jul-10 20:11 270 3 gusting 8 13.3
2020-Jul-10 20:06 291 2 gusting 6 13.3
2020-Jul-10 20:01 270 2 gusting 6 13.3
2020-Jul-10 19:56 283 1 gusting 6 13.3
2020-Jul-10 19:51 288 1 gusting 4 13.3
2020-Jul-10 19:46 291 1 gusting 8 13.3
2020-Jul-10 19:41 305 1 gusting 8 13.3
2020-Jul-10 19:36 270 3 gusting 8 13.3
2020-Jul-10 19:31 290 2 gusting 10 13.3
2020-Jul-10 19:26 286 3 gusting 10 13.3
2020-Jul-10 19:21 188 3 gusting 10 13.3
2020-Jul-10 19:16 263 3 gusting 7 13.3
2020-Jul-10 19:11 294 2 gusting 6 13.9
2020-Jul-10 19:06 278 1 gusting 6 13.9
2020-Jul-10 19:01 298 2 gusting 13 13.9
2020-Jul-10 18:56 338 3 gusting 13 13.9
2020-Jul-10 18:51 151 2 gusting 9 13.3
2020-Jul-10 18:46 196 1 gusting 9 13.3
2020-Jul-10 18:41 291 2 gusting 9 13.3
2020-Jul-10 18:36 295 2 gusting 8 13.3
2020-Jul-10 18:31 265 3 gusting 8 13.3
2020-Jul-10 18:26 291 4 gusting 8 13.3
2020-Jul-10 18:21 308 3 gusting 8 13.3
2020-Jul-10 18:16 277 1 gusting 5 13.3
2020-Jul-10 18:11 288 1 gusting 6 12.8
2020-Jul-10 18:06 321 1 gusting 6 13.3
2020-Jul-10 18:01 271 2 gusting 6 13.3
2020-Jul-10 17:56 302 1 gusting 4 12.8
2020-Jul-10 17:51 270 1 gusting 4 12.8
2020-Jul-10 17:46 305 1 gusting 5 12.2
2020-Jul-10 17:41 248 1 gusting 6 12.2
2020-Jul-10 17:36 270 1 gusting 10 12.8
2020-Jul-10 17:31 277 4 gusting 10 13.3
2020-Jul-10 17:26 270 2 gusting 9 13.9
2020-Jul-10 17:21 270 3 gusting 14 13.9
2020-Jul-10 17:16 308 3 gusting 14 13.9
2020-Jul-10 17:11 333 2 gusting 11 14.4
2020-Jul-10 17:06 332 4 gusting 10 15.0
2020-Jul-10 17:01 287 3 gusting 8 15.0
2020-Jul-10 16:56 297 3 gusting 7 15.0
2020-Jul-10 16:51 308 3 gusting 8 14.4
2020-Jul-10 16:46 317 3 gusting 10 14.4
2020-Jul-10 16:41 301 3 gusting 10 13.9
2020-Jul-10 16:36 352 1 gusting 3 13.3
2020-Jul-10 16:31 332 1 gusting 5 13.3
2020-Jul-10 16:26 318 1 gusting 6 13.3
2020-Jul-10 16:21 311 3 gusting 8 15.0
2020-Jul-10 16:16 312 3 gusting 10 15.6
2020-Jul-10 16:11 309 4 gusting 11 16.1
2020-Jul-10 16:06 013 4 gusting 11 16.1
2020-Jul-10 16:01 260 1 gusting 8 16.1
2020-Jul-10 15:56 325 3 gusting 8 15.6
2020-Jul-10 15:51 319 2 gusting 12 15.6
2020-Jul-10 15:46 308 3 gusting 12 15.6
2020-Jul-10 15:41 329 3 gusting 9 15.6
2020-Jul-10 15:36 248 3 gusting 9 15.6
2020-Jul-10 15:31 300 3 gusting 9 15.6
2020-Jul-10 15:26 325 2 gusting 8 15.6
2020-Jul-10 15:21 291 2 gusting 8 15.6
2020-Jul-10 15:16 277 3 gusting 13 16.1
2020-Jul-10 15:11 237 3 gusting 13 16.1
2020-Jul-10 15:06 335 3 gusting 13 16.1
2020-Jul-10 15:01 233 3 gusting 11 16.7
2020-Jul-10 14:56 270 3 gusting 13 16.7
2020-Jul-10 14:51 270 4 gusting 13 16.7
2020-Jul-10 14:46 288 0 gusting 11 16.7
2020-Jul-10 14:41 280 4 gusting 11 16.1
2020-Jul-10 14:36 342 2 gusting 9 16.1
2020-Jul-10 14:31 280 4 gusting 9 16.1
2020-Jul-10 14:26 268 1 gusting 7 15.0
2020-Jul-10 14:21 298 3 gusting 7 15.0
2020-Jul-10 14:16 276 2 gusting 10 15.6
2020-Jul-10 14:11 298 3 gusting 10 15.6
2020-Jul-10 14:06 294 1 gusting 8 16.1
2020-Jul-10 14:01 319 2 gusting 8 16.7
2020-Jul-10 13:56 216 2 gusting 8 16.7
2020-Jul-10 13:51 305 3 gusting 11 16.7
2020-Jul-10 13:46 265 3 gusting 11 16.1
2020-Jul-10 13:41 301 2 gusting 7 15.6
2020-Jul-10 13:36 290 2 gusting 9 15.6
2020-Jul-10 13:31 283 3 gusting 9 16.7
2020-Jul-10 13:26 298 3 gusting 12 16.7
2020-Jul-10 13:21 284 3 gusting 12 16.7
2020-Jul-10 13:16 240 1 gusting 10 16.7
2020-Jul-10 13:11 227 2 gusting 7 16.7
2020-Jul-10 13:06 333 0 gusting 7 16.7
2020-Jul-10 13:01 287 3 gusting 10 16.7
2020-Jul-10 12:56 304 3 gusting 12 16.1
2020-Jul-10 12:51 270 4 gusting 12 16.1
2020-Jul-10 12:46 277 3 gusting 10 16.1
2020-Jul-10 12:41 298 1 gusting 10 16.1
2020-Jul-10 12:36 270 1 gusting 4 16.1
2020-Jul-10 12:31 288 1 gusting 9 16.1
2020-Jul-10 12:26 240 2 gusting 9 16.1
2020-Jul-10 12:21 255 5 gusting 7 16.1
2020-Jul-10 12:16 263 2 gusting 7 16.1
2020-Jul-10 12:11 264 1 gusting 7 15.6
2020-Jul-10 12:06 314 0 gusting 8 16.1
2020-Jul-10 12:01 304 2 gusting 8 16.1
2020-Jul-10 11:56 265 1 gusting 5 16.1
2020-Jul-10 11:51 284 1 gusting 8 16.7
2020-Jul-10 11:46 301 1 gusting 8 16.1
2020-Jul-10 11:41 308 1 gusting 5 15.6
2020-Jul-10 11:36 014 2 gusting 5 15.6
2020-Jul-10 11:31 293 1 gusting 5 15.6
2020-Jul-10 11:26 319 1 gusting 3 15.6
2020-Jul-10 11:21 278 1 gusting 8 15.6
2020-Jul-10 11:16 291 3 gusting 8 15.6
2020-Jul-10 11:11 264 0 gusting 3 16.1
2020-Jul-10 11:06 294 16.1
2020-Jul-10 11:01 331 16.1
2020-Jul-10 10:56 338 2 gusting 3 15.6
2020-Jul-10 10:51 357 16.1
2020-Jul-10 10:46 295 16.1
2020-Jul-10 10:41 293 0 gusting 2 16.1
2020-Jul-10 10:36 291 1 gusting 3 15.6
2020-Jul-10 10:31 307 0 gusting 3 15.6
2020-Jul-10 10:26 270 1 gusting 3 15.6
2020-Jul-10 10:21 264 1 gusting 2 15.0
2020-Jul-10 10:16 271 0 gusting 2 15.0
2020-Jul-10 10:11 276 0 gusting 5 15.0
2020-Jul-10 10:06 260 2 gusting 5 15.0
2020-Jul-10 10:01 304 1 gusting 4 14.4
2020-Jul-10 09:56 270 0 gusting 3 14.4
2020-Jul-10 09:51 278 0 gusting 3 15.0
2020-Jul-10 09:46 301 1 gusting 5 14.4
2020-Jul-10 09:41 301 2 gusting 5 15.0
2020-Jul-10 09:36 331 1 gusting 4 14.4
2020-Jul-10 09:31 328 1 gusting 3 14.4
2020-Jul-10 09:26 250 0 gusting 1 14.4
2020-Jul-10 09:21 311 0 gusting 1 14.4
2020-Jul-10 09:16 273 0 gusting 2 14.4
2020-Jul-10 09:11 332 1 gusting 2 14.4
2020-Jul-10 09:06 307 0 gusting 2 14.4
2020-Jul-10 09:01 302 0 gusting 3 15.0
2020-Jul-10 08:56 332 1 gusting 4 15.0
2020-Jul-10 08:51 270 1 gusting 4 15.0
2020-Jul-10 08:46 335 1 gusting 3 15.0
2020-Jul-10 08:41 293 0 gusting 3 15.0
2020-Jul-10 08:36 281 0 gusting 3 15.0
2020-Jul-10 08:31 280 1 gusting 4 15.0
2020-Jul-10 08:26 278 1 gusting 4 15.0
2020-Jul-10 08:21 338 1 gusting 3 15.0
2020-Jul-10 08:16 341 0 gusting 2 15.0
2020-Jul-10 08:11 270 0 gusting 2 15.0
2020-Jul-10 08:06 300 1 gusting 2 15.0
2020-Jul-10 08:01 186 0 gusting 3 15.0
2020-Jul-10 07:56 004 0 gusting 3 15.0
2020-Jul-10 07:51 325 0 gusting 3 15.0
2020-Jul-10 07:46 357 1 gusting 3 15.0
2020-Jul-10 07:41 350 0 gusting 3 15.0
2020-Jul-10 07:36 311 0 gusting 3 15.0
2020-Jul-10 07:31 308 1 gusting 2 15.0
2020-Jul-10 07:26 345 0 gusting 6 15.6
2020-Jul-10 07:21 291 1 gusting 6 15.6
2020-Jul-10 07:16 117 15.6
2020-Jul-10 07:11 349 15.0
2020-Jul-10 07:06 295 15.0
2020-Jul-10 07:01 319 14.4
2020-Jul-10 06:56 304 0 gusting 1 14.4
2020-Jul-10 06:51 307 15.0
2020-Jul-10 06:46 307 15.0
2020-Jul-10 06:41 308 15.0
2020-Jul-10 06:36 317 15.6
2020-Jul-10 06:31 324 15.6
2020-Jul-10 06:26 295 15.0
2020-Jul-10 06:21 239 15.0
2020-Jul-10 06:16 231 15.0
2020-Jul-10 06:11 037 14.4
2020-Jul-10 06:01 037 13.9
2020-Jul-10 05:56 037 13.3
2020-Jul-10 05:51 037 13.3
2020-Jul-10 05:46 037 12.8
2020-Jul-10 05:41 037 12.8
2020-Jul-10 05:36 037 12.2
2020-Jul-10 05:31 037 11.7
2020-Jul-10 05:26 037 11.7
2020-Jul-10 05:21 037 11.1
2020-Jul-10 05:16 037 11.1
2020-Jul-10 05:11 037 10.6
2020-Jul-10 05:06 037 0 gusting 1 10.0
2020-Jul-10 05:01 339 10.0
2020-Jul-10 04:56 339 10.0
2020-Jul-10 04:51 339 9.4
2020-Jul-10 04:46 339 9.4
2020-Jul-10 04:41 339 8.9
2020-Jul-10 04:36 339 8.3
2020-Jul-10 04:31 339 8.3
2020-Jul-10 04:26 339 7.8
2020-Jul-10 04:21 339 7.8
2020-Jul-10 04:16 339 7.8
2020-Jul-10 04:11 339 7.2
2020-Jul-10 04:06 339 6.7
2020-Jul-10 04:01 339 6.1
2020-Jul-10 03:56 339 6.1
2020-Jul-10 03:51 339 5.6
2020-Jul-10 03:46 339 5.6
2020-Jul-10 03:41 339 5.6
2020-Jul-10 03:36 339 5.0
2020-Jul-10 03:31 339 5.0
2020-Jul-10 03:26 339 5.0
2020-Jul-10 03:21 339 5.6
2020-Jul-10 03:16 339 5.6
2020-Jul-10 03:11 339 5.6
2020-Jul-10 03:06 339 5.6
2020-Jul-10 03:01 339 5.6
2020-Jul-10 02:56 339 5.6
2020-Jul-10 02:51 339 5.6
2020-Jul-10 02:46 339 5.6
2020-Jul-10 02:41 339 5.6
2020-Jul-10 02:36 339 5.6
2020-Jul-10 02:31 339 5.6
2020-Jul-10 02:26 339 5.6
2020-Jul-10 02:21 339 5.6
2020-Jul-10 02:16 339 6.1
2020-Jul-10 02:11 339 6.1
2020-Jul-10 02:06 339 6.1
2020-Jul-10 02:01 339 6.1
2020-Jul-10 01:56 339 6.1
2020-Jul-10 01:51 339 6.1
2020-Jul-10 01:46 339 6.1
2020-Jul-10 01:41 339 6.1
2020-Jul-10 01:36 339 6.1
2020-Jul-10 01:31 339 6.1
2020-Jul-10 01:26 339 6.1
2020-Jul-10 01:21 339 6.7
2020-Jul-10 01:16 339 6.7
2020-Jul-10 01:11 339 6.7
2020-Jul-10 01:06 339 6.7
2020-Jul-10 01:01 339 6.7
2020-Jul-10 00:56 339 7.2
2020-Jul-10 00:51 339 7.2
2020-Jul-10 00:46 339 7.2
2020-Jul-10 00:41 339 7.2
2020-Jul-10 00:36 339 7.8
2020-Jul-10 00:31 339 7.8
2020-Jul-10 00:26 339 7.8
2020-Jul-10 00:21 339 7.8
2020-Jul-10 00:16 339 7.8
2020-Jul-10 00:11 339 7.8
2020-Jul-10 00:06 339 7.8
2020-Jul-10 00:01 339 7.8
2020-Jul-09 23:56 339 7.8
2020-Jul-09 23:51 339 7.8
2020-Jul-09 23:46 339 7.8
2020-Jul-09 23:41 339 7.8
2020-Jul-09 23:36 339 7.8
2020-Jul-09 23:31 339 7.8
2020-Jul-09 23:26 339 7.8
2020-Jul-09 23:21 339 7.8
2020-Jul-09 23:16 339 7.8
2020-Jul-09 23:11 339 7.8
2020-Jul-09 23:06 339 7.8
2020-Jul-09 23:01 339 8.3
2020-Jul-09 22:56 339 8.3
2020-Jul-09 22:51 339 8.3
2020-Jul-09 22:46 339 8.3
2020-Jul-09 22:41 339 8.9
2020-Jul-09 22:36 339 8.9
2020-Jul-09 22:31 339 8.9
2020-Jul-09 22:26 339 9.4
2020-Jul-09 22:21 339 9.4
2020-Jul-09 22:16 339 9.4
2020-Jul-09 22:10 339 9.4
2020-Jul-09 22:06 339 9.4
2020-Jul-09 22:01 339 9.4
2020-Jul-09 21:56 339 10.0
2020-Jul-09 21:50 339 10.0
2020-Jul-09 21:46 339 10.0
2020-Jul-09 21:40 339 10.6
2020-Jul-09 21:35 339 10.6
2020-Jul-09 21:30 339 10.6
2020-Jul-09 21:25 339 10.6
2020-Jul-09 21:20 339 11.1
2020-Jul-09 21:15 339 11.1
2020-Jul-09 21:10 339 11.1
2020-Jul-09 21:05 339 11.1
2020-Jul-09 21:00 339 11.1
2020-Jul-09 20:55 339 11.1
2020-Jul-09 20:50 339 11.7
2020-Jul-09 20:45 339 11.7
2020-Jul-09 20:40 339 11.7
2020-Jul-09 20:35 339 11.7
2020-Jul-09 20:30 339 11.7
2020-Jul-09 20:25 339 12.2
2020-Jul-09 20:20 339 12.2
2020-Jul-09 20:15 339 12.2
2020-Jul-09 20:10 339 12.8
2020-Jul-09 20:05 339 12.8
2020-Jul-09 20:00 339 12.8
2020-Jul-09 19:55 339 12.8
2020-Jul-09 19:50 339 12.8
2020-Jul-09 19:45 339 13.3
2020-Jul-09 19:40 339 13.3
2020-Jul-09 19:36 339 13.3
2020-Jul-09 19:30 339 13.3
2020-Jul-09 19:25 339 13.3
2020-Jul-09 19:20 339 0 gusting 2 13.9
2020-Jul-09 19:15 339 0 gusting 2 13.9
2020-Jul-09 19:10 339 0 gusting 2 13.9
2020-Jul-09 19:05 352 0 gusting 3 14.4
2020-Jul-09 19:00 355 0 gusting 3 14.4
2020-Jul-09 18:55 007 0 gusting 2 14.4
2020-Jul-09 18:50 297 0 gusting 4 14.4
2020-Jul-09 18:45 325 0 gusting 4 15.0
2020-Jul-09 18:40 304 15.0
2020-Jul-09 18:35 295 1 gusting 5 15.0
2020-Jul-09 18:30 349 1 gusting 5 15.6
2020-Jul-09 18:25 339 15.6
2020-Jul-09 18:20 338 1 gusting 3 15.6
2020-Jul-09 18:15 356 1 gusting 3 15.6
2020-Jul-09 18:10 356 1 gusting 5 15.6
2020-Jul-09 18:05 209 0 gusting 5 15.6
2020-Jul-09 18:00 270 1 gusting 4 15.6
2020-Jul-09 17:55 274 1 gusting 4 15.6
2020-Jul-09 17:50 322 1 gusting 5 15.6
2020-Jul-09 17:45 346 1 gusting 5 15.6
2020-Jul-09 17:40 308 1 gusting 4 15.6
2020-Jul-09 17:35 270 1 gusting 4 16.1
2020-Jul-09 17:30 315 1 gusting 3 16.1
2020-Jul-09 17:25 288 0 gusting 5 16.1
2020-Jul-09 17:20 324 2 gusting 5 16.1
2020-Jul-09 17:15 300 1 gusting 5 16.1
2020-Jul-09 17:10 321 1 gusting 5 16.1
2020-Jul-09 17:05 336 1 gusting 4 16.1
2020-Jul-09 17:00 301 1 gusting 3 16.1
2020-Jul-09 16:55 298 0 gusting 3 15.6
2020-Jul-09 16:50 293 2 gusting 3 16.1
2020-Jul-09 16:45 301 0 gusting 6 16.1
2020-Jul-09 16:40 263 1 gusting 6 16.1
2020-Jul-09 16:35 270 0 gusting 6 16.1
2020-Jul-09 16:30 237 0 gusting 4 16.1
2020-Jul-09 16:25 281 1 gusting 4 16.1
2020-Jul-09 16:20 324 1 gusting 5 16.7
2020-Jul-09 16:15 240 2 gusting 5 17.2
2020-Jul-09 16:10 346 0 gusting 4 16.7
2020-Jul-09 16:05 315 1 gusting 6 16.7
2020-Jul-09 16:00 270 1 gusting 6 17.2
2020-Jul-09 15:55 290 1 gusting 5 17.2
2020-Jul-09 15:50 293 1 gusting 6 17.2
2020-Jul-09 15:45 286 0 gusting 6 17.2
2020-Jul-09 15:40 271 1 gusting 1 17.2
2020-Jul-09 15:35 247 0 gusting 2 17.2
2020-Jul-09 15:30 247 0 gusting 4 17.2
2020-Jul-09 15:25 267 2 gusting 4 17.8
2020-Jul-09 15:20 309 0 gusting 5 17.8
2020-Jul-09 15:15 270 4 gusting 5 17.2
2020-Jul-09 15:10 251 1 gusting 3 17.8
2020-Jul-09 15:05 270 1 gusting 3 17.2
2020-Jul-09 15:00 251 1 gusting 4 17.2
2020-Jul-09 14:55 268 1 gusting 4 17.2
2020-Jul-09 14:50 301 1 gusting 4 17.2
2020-Jul-09 14:45 246 1 gusting 5 17.2
2020-Jul-09 14:40 068 1 gusting 5 17.2
2020-Jul-09 14:35 331 2 gusting 5 17.2
2020-Jul-09 14:30 325 1 gusting 7 17.8
2020-Jul-09 14:25 333 1 gusting 7 17.2
2020-Jul-09 14:20 048 1 gusting 7 17.8
2020-Jul-09 14:15 314 1 gusting 5 17.2
2020-Jul-09 14:10 210 1 gusting 5 17.8
2020-Jul-09 14:05 268 1 gusting 5 17.8
2020-Jul-09 14:00 335 2 gusting 7 17.2
2020-Jul-09 13:55 273 1 gusting 7 17.2
2020-Jul-09 13:50 270 1 gusting 6 17.2
2020-Jul-09 13:45 348 1 gusting 6 17.2
2020-Jul-09 13:40 312 2 gusting 6 17.2
2020-Jul-09 13:35 314 2 gusting 11 17.2
2020-Jul-09 13:30 270 3 gusting 11 17.2
2020-Jul-09 13:25 287 2 gusting 8 17.2
2020-Jul-09 13:20 325 1 gusting 8 17.2
2020-Jul-09 13:15 280 3 gusting 8 17.2
2020-Jul-09 13:10 322 2 gusting 8 17.2
2020-Jul-09 13:05 270 1 gusting 8 17.2
2020-Jul-09 13:00 356 2 gusting 5 17.2
2020-Jul-09 12:55 209 1 gusting 5 17.2
2020-Jul-09 12:50 322 3 gusting 5 17.2
2020-Jul-09 12:45 270 2 gusting 5 17.2
2020-Jul-09 12:40 312 1 gusting 7 16.7
2020-Jul-09 12:35 305 3 gusting 7 17.2
2020-Jul-09 12:30 273 2 gusting 6 17.2
2020-Jul-09 12:25 309 2 gusting 7 17.2
2020-Jul-09 12:19 243 1 gusting 7 17.2
2020-Jul-09 12:15 309 2 gusting 7 17.2
2020-Jul-09 12:10 315 2 gusting 5 16.7
2020-Jul-09 12:04 277 2 gusting 7 17.2
2020-Jul-09 11:59 248 3 gusting 7 17.2
2020-Jul-09 11:54 328 2 gusting 5 17.2
2020-Jul-09 11:49 312 1 gusting 8 17.2
2020-Jul-09 11:44 329 1 gusting 8 17.2
2020-Jul-09 11:39 280 2 gusting 7 17.2
2020-Jul-09 11:34 241 2 gusting 6 16.7
2020-Jul-09 11:29 250 2 gusting 4 16.7
2020-Jul-09 11:24 230 1 gusting 5 17.2
2020-Jul-09 11:19 302 2 gusting 6 17.2
2020-Jul-09 11:14 317 2 gusting 6 17.2
2020-Jul-09 11:09 308 2 gusting 7 17.8
2020-Jul-09 11:04 291 1 gusting 7 17.2
2020-Jul-09 10:59 217 2 gusting 6 17.2
2020-Jul-09 10:54 223 1 gusting 6 17.2
2020-Jul-09 10:49 304 1 gusting 6 17.2
2020-Jul-09 10:44 270 1 gusting 6 16.7
2020-Jul-09 10:39 014 1 gusting 6 17.2
2020-Jul-09 10:34 283 1 gusting 6 16.7
2020-Jul-09 10:29 274 2 gusting 7 16.1
2020-Jul-09 10:24 236 3 gusting 7 16.1
2020-Jul-09 10:19 264 2 gusting 6 16.7
2020-Jul-09 10:14 227 2 gusting 6 16.7
2020-Jul-09 10:09 287 2 gusting 6 16.7
2020-Jul-09 10:04 231 2 gusting 6 16.7
2020-Jul-09 09:59 268 1 gusting 4 17.2
2020-Jul-09 09:54 324 1 gusting 5 17.2
2020-Jul-09 09:49 257 1 gusting 5 17.2
2020-Jul-09 09:44 270 1 gusting 5 17.2
2020-Jul-09 09:39 003 3 gusting 5 16.7
2020-Jul-09 09:34 251 1 gusting 5 16.7
2020-Jul-09 09:29 270 1 gusting 5 16.7
2020-Jul-09 09:24 321 2 gusting 8 16.7
2020-Jul-09 09:19 280 3 gusting 8 16.7
2020-Jul-09 09:14 236 2 gusting 7 16.7
2020-Jul-09 09:09 314 1 gusting 10 16.7
2020-Jul-09 09:04 276 4 gusting 10 16.1
2020-Jul-09 08:59 339 1 gusting 6 16.7
2020-Jul-09 08:54 188 1 gusting 4 16.7
2020-Jul-09 08:49 324 1 gusting 5 16.7
2020-Jul-09 08:44 311 1 gusting 6 16.7
2020-Jul-09 08:39 226 2 gusting 6 16.1
2020-Jul-09 08:34 314 0 gusting 4 16.1
2020-Jul-09 08:29 260 0 gusting 5 16.1
2020-Jul-09 08:24 250 1 gusting 5 16.1
2020-Jul-09 08:19 227 1 gusting 4 15.6
2020-Jul-09 08:14 270 1 gusting 4 15.6
2020-Jul-09 08:09 270 1 gusting 4 15.0
2020-Jul-09 08:04 261 1 gusting 4 14.4
2020-Jul-09 07:59 270 1 gusting 4 14.4
2020-Jul-09 07:54 006 0 gusting 1 14.4
2020-Jul-09 07:49 270 14.4
2020-Jul-09 07:44 270 1 gusting 3 14.4
2020-Jul-09 07:39 342 1 gusting 4 15.0
2020-Jul-09 07:34 284 1 gusting 4 15.0
2020-Jul-09 07:29 023 0 gusting 5 15.6
2020-Jul-09 07:24 224 0 gusting 5 15.0
2020-Jul-09 07:19 357 1 gusting 4 15.0
2020-Jul-09 07:14 314 0 gusting 3 15.0
2020-Jul-09 07:09 341 0 gusting 3 15.6
2020-Jul-09 07:04 321 0 gusting 3 15.6
2020-Jul-09 06:59 277 1 gusting 3 15.6
2020-Jul-09 06:49 220 0 gusting 2 14.4
2020-Jul-09 06:44 274 0 gusting 3 14.4
2020-Jul-09 06:39 291 1 gusting 3 14.4
2020-Jul-09 06:34 239 0 gusting 4 14.4
2020-Jul-09 06:29 260 0 gusting 4 14.4
2020-Jul-09 06:24 016 0 gusting 3 14.4
2020-Jul-09 06:19 251 0 gusting 1 14.4
2020-Jul-09 06:09 251 14.4
2020-Jul-09 06:04 251 0 gusting 1 14.4
2020-Jul-09 05:59 251 14.4
2020-Jul-09 05:54 251 14.4
2020-Jul-09 05:49 251 14.4
2020-Jul-09 05:44 250 0 gusting 3 14.4
2020-Jul-09 05:39 253 13.9
2020-Jul-09 05:34 253 13.9
2020-Jul-09 05:29 253 13.9
2020-Jul-09 05:24 253 13.9
2020-Jul-09 05:19 253 13.3
2020-Jul-09 05:14 253 12.8
2020-Jul-09 05:09 253 12.2
2020-Jul-09 05:04 253 11.7
2020-Jul-09 04:59 253 11.7
2020-Jul-09 04:54 253 11.1
2020-Jul-09 04:49 253 11.1
2020-Jul-09 04:44 253 11.1
2020-Jul-09 04:39 253 11.1
2020-Jul-09 04:34 253 10.6
2020-Jul-09 04:29 253 10.6
2020-Jul-09 04:24 253 10.6
2020-Jul-09 04:19 253 10.6
2020-Jul-09 04:14 253 10.0
2020-Jul-09 04:09 253 10.0
2020-Jul-09 04:04 253 10.0
2020-Jul-09 03:59 253 10.0
2020-Jul-09 03:54 253 10.0
2020-Jul-09 03:49 253 10.0
2020-Jul-09 03:44 253 10.0
2020-Jul-09 03:39 253 10.0
2020-Jul-09 03:34 253 10.0
2020-Jul-09 03:29 253 10.0
2020-Jul-09 03:24 253 10.0
2020-Jul-09 03:19 253 10.0
2020-Jul-09 03:14 253 10.0
2020-Jul-09 03:09 253 10.0
2020-Jul-09 03:04 253 10.0
2020-Jul-09 02:59 253 10.0
2020-Jul-09 02:54 253 10.0
2020-Jul-09 02:49 253 10.0
2020-Jul-09 02:44 253 10.0
2020-Jul-09 02:39 253 10.0
2020-Jul-09 02:34 253 10.0
2020-Jul-09 02:29 253 10.6
2020-Jul-09 02:24 253 10.6
2020-Jul-09 02:19 253 10.6
2020-Jul-09 02:14 253 10.6
2020-Jul-09 02:09 253 10.6
2020-Jul-09 02:04 253 10.6
2020-Jul-09 01:59 253 10.6
2020-Jul-09 01:54 253 10.6
2020-Jul-09 01:49 253 10.6
2020-Jul-09 01:44 253 10.6
2020-Jul-09 01:39 253 10.6
2020-Jul-09 01:34 253 10.6
2020-Jul-09 01:29 253 10.6
2020-Jul-09 01:24 253 10.6
2020-Jul-09 01:19 253 10.6
2020-Jul-09 01:14 253 10.6
2020-Jul-09 01:09 253 10.6
2020-Jul-09 01:04 253 11.1
2020-Jul-09 00:59 253 11.1
2020-Jul-09 00:54 253 11.1
2020-Jul-09 00:49 253 11.1
2020-Jul-09 00:44 253 11.7
2020-Jul-09 00:39 253 11.7
2020-Jul-09 00:34 253 11.7
2020-Jul-09 00:29 253 11.7
2020-Jul-09 00:24 253 11.7
2020-Jul-09 00:19 253 11.7
2020-Jul-09 00:14 253 11.7
2020-Jul-09 00:09 253 11.7
2020-Jul-09 00:04 253 11.7
2020-Jul-08 23:59 253 11.7
2020-Jul-08 23:54 253 11.7
2020-Jul-08 23:49 253 12.2
2020-Jul-08 23:44 253 12.2
2020-Jul-08 23:39 253 12.2
2020-Jul-08 23:34 253 11.7
2020-Jul-08 23:29 253 11.7
2020-Jul-08 23:24 253 11.7
2020-Jul-08 23:19 253 11.7
2020-Jul-08 23:14 253 11.7
2020-Jul-08 23:09 253 11.7
2020-Jul-08 23:04 253 11.7